Location: Cerezo de Arriba
(41.2389°N, 3.5585°W)
Time: 03:58:15
(UTC+00:00)

Cosmos 2360 Rocket - Pass Details

Date: 19 May 2025
Orbit: 834 x 842 km, 71.0° (Epoch: 23 June)

Event Time Altitude Azimuth Distance (km) Brightness Sun altitude
Rises 23:10:37 0° 345° (NNW) 3,390 6.6 -27.2°
Reaches altitude 10° 23:13:29 10° 358° (N) 2,453 5.5 -27.3°
Maximum altitude 23:18:08 26° 54° (NE) 1,593 3.8 -27.6°
Enters shadow 23:19:40 23° 80° (E) 1,708 3.7 -27.6°
